PSLV R/B, 40058

Orbit data source: Space-Track

PSLV R/B, 40058 is space debris in SSO originally from a launch on Mon, 30 Jun 2014 UTC launched from the Sirharikota (SRI). Debris objects in space refer to the collection of defunct objects orbiting the Earth. Examples of debris include non-operational satellites, rocket bodies, and fragments generated from explosions, collisions, or faulty payload assembly.

Loading next visibility...
Identifier
40058, 2014-034F
Orbit
SSO
Country
Flag of ININ / IND
Related business
Manufacturer
VSSC/LPSC
Mission
Spacecraft
Bus & Motor
PS-4, Unknown motor
Mass
920 kg wet, 920 kg dry
Launch date (UTC)
2014-06-30 (11 years ago)
Launch vehicle
Unknown
Launch site
Sirharikota (SRI)
Object type
Payload
Rocket body
Debris
Shape & HBR
Cyl + Cyl + 2 Nozzle, 1.6 m
Radar Cross Section
3.727 m², Large (>1 m²)

Expand to show TLE details & history
Last TLE update: 9 hours ago

TLE from 9 hours ago
0 PSLV R/B
1 40058U 14034F   25298.83078553  .00001410  00000-0  17692-3 0  9998
2 40058  98.3116 146.1526 0020831  15.4267 344.7576 14.83744001611311
Epoch: 2025-10-25T19:56Z
TLE epoch observation values (Epoch: 2025-10-25T19:56:19.869Z)
Latitude
-0.00007°
Longitude
172.61412°
Altitude
606.484 km
Speed
7.564 km/s
True Right ascension
09h 44m 36s
True Declination
0° 00' 00"
Sunlit
Object was in daylight at epoch
Visualization orbit readout
Latitude
Unknown
Longitude
Unknown
Altitude
Unknown
Speed
Unknown
Apparent Right ascension
Unknown
Apparent Declination
Unknown
Sunlit
N/A
Visualization observer readout
Local Sidereal Time
00:07:55
Azimuth
Unknown
Elevation
Unknown
Doppler factor
Unknown
Orbital elements
Apogee altitude
629.152 km
Perigee altitude
600.019 km
Semi-major axis
6,992.723 km
Eccentricity
0.00208
Inclination
98.3116°
RAAN
146.1526°
Arg. of periapsis
15.4267°
True anomaly
344.69469°
Mean anomaly
344.7576°
Eccentric anomaly
344.72616°
Mean motion
3.71171 °/min
Orbital period
96.99 mins
BSTAR
0.00017692
Loading maneuver chart data...
Computing Atmospheric mass density...
Loading historical data...
Loading historical data...
Loading historical data...
Loading historical data...
Loading historical data...
Loading historical data...
Loading historical data...
Other satellites on launch #34 in the year 2014 (2014-06-30 UTC)

Documentation

Showing up to 5 results
|